Flag for Russia Weather past 2 weeks in Syktyvkar, Russia

Now
36 °F

Sunny.


Feels Like: 36 °F
Forecast: 18 / 29 °F
Wind: No wind

Location: Syktyvkar Airport

Current Time: Mar 4, 2015 at 11:45:37 AM

Latest Report: Mar 4, 2015 at 11:00 AM


Visibility: 10 mi

Pressure: 30.24 "Hg

Humidity: 56%

Dew point: 21 °F

Location of SyktyvkarLocation

Historic Weather in Syktyvkar — Graph

°F

Syktyvkar temperature yesterday

Maximum temperature yesterday: 32 °F (at 12:00 PM)
Minimum temperature yesterday: 16 °F (at 11:30 PM)
Average temperature yesterday: 27 °F

Past Weeks' High & Low Weather Summary

 TemperatureHumidityPressure
High37 °F (Feb 23, 1:00 PM)100% (Feb 21, 2:00 AM)30.39 "Hg (Feb 21, 2:00 AM)
Low3 °F (Feb 17, 10:00 AM)53% (Feb 17, 3:00 PM)29.27 "Hg (Feb 21, 6:30 AM)
Average28 °F80%30.03 "Hg
* Reported Feb 17 10:00 AM — Mar 4 10:30 AM, Syktyvkar, Weather by CustomWeather, © 2015

Note: Actual official high and low records may vary slightly from our data, if they occured in-between our weather recording intervals... More about our weather records

Advertising

Syktyvkar weather history for previous 24 hours

 ConditionsComfort  
Time TempWeatherWind HumidityBarometerVisibility
10:30 AM
Wed, Mar 4
34 °FSunny.No wind65%30.21 "Hg10 mi
10:00 AM30 °FSunny.1 mph75%30.24 "Hg10 mi
9:30 AM28 °FSunny.3 mph80%30.21 "Hg10 mi
9:00 AM27 °FSunny.3 mph86%30.24 "Hg10 mi
8:30 AM25 °FSunny.1 mph93%30.21 "Hg10 mi
8:00 AM25 °FPartly sunny.1 mph93%30.24 "Hg6 mi
7:30 AM25 °FMostly cloudy.No wind86%30.21 "Hg6 mi
7:00 AM23 °FMostly cloudy.No wind93%30.21 "Hg6 mi
6:30 AM23 °FMostly cloudy.No wind93%30.21 "Hg6 mi
6:00 AM21 °FClear.No wind93%30.21 "Hg10 mi
5:30 AM21 °FClear.No wind93%30.21 "Hg10 mi
5:00 AM19 °FClear.No wind86%30.21 "Hg10 mi
4:30 AM18 °FMostly cloudy.No wind93%30.21 "HgN/A
4:00 AM18 °FOvercast.No wind86%30.21 "HgN/A
3:30 AM18 °FMostly cloudy.No wind93%30.21 "Hg4 mi
3:00 AM16 °FMostly cloudy.3 mph93%30.21 "Hg4 mi
2:30 AM19 °FMostly cloudy.1 mph86%30.21 "HgN/A
2:00 AM21 °FMostly cloudy.3 mph86%30.21 "Hg6 mi
1:30 AM18 °FMostly cloudy.1 mph93%30.21 "Hg6 mi
1:00 AM18 °FMostly cloudy.No wind93%30.21 "Hg4 mi
12:30 AM18 °FMostly cloudy.1 mph93%30.21 "Hg4 mi
12:00 AM16 °FIce fog.3 mph93%30.21 "Hg2 mi
11:30 PM
Tue, Mar 3
16 °FOvercast.3 mph93%30.21 "Hg4 mi
11:00 PM19 °FClear.1 mph86%30.21 "Hg10 mi
10:00 PM18 °FClear.3 mph93%30.21 "Hg10 mi
9:30 PM18 °FClear.1 mph93%30.21 "Hg10 mi
9:00 PM19 °FClear.1 mph86%30.21 "Hg10 mi
8:30 PM23 °FPassing clouds.No wind86%30.21 "Hg6 mi
8:00 PM21 °FPassing clouds.No wind86%30.21 "Hg4 mi
7:30 PM23 °FPassing clouds.1 mph86%30.21 "Hg4 mi
7:00 PM25 °FMostly cloudy.1 mph80%30.21 "Hg4 mi
6:30 PM23 °FMostly cloudy.1 mph80%30.21 "Hg6 mi
6:00 PM27 °FSunny.3 mph74%30.21 "Hg10 mi
5:30 PM27 °FSunny.3 mph74%30.21 "Hg10 mi
5:00 PM27 °FSunny.3 mph74%30.21 "Hg10 mi
4:30 PM28 °FSunny.3 mph69%30.21 "Hg10 mi
4:00 PM28 °FSunny.6 mph74%30.21 "Hg10 mi
3:30 PM30 °FMore clouds than sun.6 mph69%30.21 "Hg6 mi
3:00 PM30 °FBroken clouds.6 mph69%30.21 "HgN/A
2:30 PM32 °FMostly cloudy.6 mph64%30.21 "HgN/A
2:00 PM32 °FMostly cloudy.6 mph69%30.18 "HgN/A
1:30 PM32 °FMostly cloudy.6 mph69%30.18 "HgN/A
1:00 PM32 °FMostly cloudy.6 mph69%30.18 "HgN/A
12:30 PM32 °FMostly cloudy.6 mph69%30.18 "HgN/A
12:00 PM32 °FOvercast.6 mph69%30.18 "HgN/A
11:30 AM30 °FOvercast.6 mph75%30.18 "HgN/A
11:00 AM30 °FOvercast.3 mph69%30.18 "HgN/A
Weather by CustomWeather, © 2015

See weather overviewHow to use our weather pages